Flag for Canada Weather past 2 weeks in Sherbrooke, Quebec, Canada

Now
48 °F

Clear.


Feels Like: 48 °F
Forecast: 53 / 74 °F
Wind: 2 mph from Southeast

Location: Sherbrooke

Current Time: Aug 30, 2014 at 1:26:39 AM

Latest Report: Aug 30, 2014 at 1:00 AM


Visibility: 9 mi

Pressure: 30.22 "Hg

Humidity: 94%

Dew point: 46 °F

Location of SherbrookeLocation

Historic Weather in Sherbrooke — Graph

°F

Sherbrooke temperature yesterday

Maximum temperature yesterday: 70 °F (at 3:00 PM)
Minimum temperature yesterday: 50 °F (at 11:00 PM)
Average temperature yesterday: 59 °F

Past Weeks' High & Low Weather Summary

 TemperatureHumidityPressure
High82 °F (Aug 25, 2:00 PM)100% (Aug 15, 1:00 AM)30.23 "Hg (Aug 15, 1:00 AM)
Low46 °F (Aug 15, 2:00 AM)38% (Aug 29, 3:00 PM)29.78 "Hg (Aug 17, 5:00 AM)
Average62 °F81%30.01 "Hg
* Reported Midnight between Aug 14 and Aug 15 — Midnight between Aug 29 and Aug 30, Sherbrooke, Weather by CustomWeather, © 2014

Note: Actual official high and low records may vary slightly from our data, if they occured in-between our weather recording intervals... More about our weather records

Advertising

Sherbrooke weather history for previous 24 hours

 ConditionsComfort  
Time TempWeatherWind HumidityBarometerVisibility
12:00 AM
Aug 30
48 °FClear.2 mph94%30.21 "Hg9 mi
11:00 PM
Aug 29
50 °FClear.2 mph94%30.21 "Hg9 mi
10:00 PM54 °FClear.5 mph88%30.20 "Hg9 mi
9:00 PM55 °FClear.5 mph88%30.21 "Hg9 mi
8:00 PM55 °FSunny.2 mph82%30.19 "Hg8 mi
7:00 PM63 °FSunny.No wind68%30.20 "Hg9 mi
6:00 PM70 °FSunny.5 mph43%30.19 "Hg9 mi
5:00 PM70 °FSunny.2 mph40%30.18 "Hg9 mi
3:00 PM70 °FSunny.5 mph38%30.19 "Hg9 mi
2:00 PM68 °FSunny.6 mph43%30.20 "Hg9 mi
1:00 PM66 °FSunny.2 mph46%30.21 "Hg9 mi
12:00 PM66 °FSunny.7 mph46%30.22 "Hg9 mi
11:00 AM64 °FSunny.7 mph49%30.23 "Hg9 mi
10:00 AM61 °FSunny.6 mph59%30.23 "Hg9 mi
9:00 AM57 °FSunny.8 mph67%30.22 "Hg9 mi
8:00 AM55 °FSunny.3 mph82%30.20 "Hg9 mi
7:00 AM52 °FClear.2 mph88%30.18 "Hg9 mi
6:00 AM54 °FOvercast.5 mph94%30.14 "Hg9 mi
5:00 AM54 °FOvercast.No wind94%30.11 "Hg9 mi
4:00 AM55 °FOvercast.No wind88%30.09 "Hg9 mi
3:52 AM55 °FMostly cloudy.5 mph88%30.09 "Hg9 mi
3:00 AM55 °FMostly cloudy.2 mph88%30.07 "Hg9 mi
2:00 AM55 °FOvercast.5 mph88%30.06 "Hg9 mi
1:00 AM55 °FPassing clouds.3 mph88%30.04 "Hg9 mi
Weather by CustomWeather, © 2014

See weather overviewHow to use our weather pages